Starlink 4378

operational
NORAD ID: 53476 Int'l Des: 2022-099 Owner: SPXS Country: US Constellation: starlink
LEOCIRCULARRETROGRADESSO

About Starlink 4378

Description loading...

Live Position

Loading 3D Globe...

Upcoming Passes

Altitude History

Altitude vs Time

uPlot chart will show altitude changes over time

Two-Line Element Set

1 53476U 22099M 25340.86796350 .00001096 00000-0 89884-4 0 9992
2 53476 97.6029 99.3465 0003452 79.6402 280.5211 15.01257729182052
Epoch: Dec 6, 2025 • Age: 10 hours

Current Status

Altitude 565.7 km
Velocity 7.58 km/s
Sub-Earth Point 25.74°N, 100.43°E
Launch Date Aug 12, 2022
Age 3.3 years
Type internet

Technical Details

Classification Payload
Mass 300.00 kg
Dry Mass 275.00 kg
Total Mass 300.00 kg
Length 0.20 m
Diameter 2.80 m
Span 9.00 m
Shape Box + pan
Manufacturer SPXS
Bus Type Starlink
Phase Status In Orbit
Owner/State SPXS/US

Large Constellations

Loading constellations...